Vorticity
nan nan nan nan nan nan nan nan nan nan nan nan nan nan nan nan nan nan nan nan nan nan nan nan nan nan nan nan nan nan nan nan nan nan nan nan nan nan nan nan nan nan nan nan
nan 12 8 7 5 4 2 6 6 13 17 7 10 6 11 13 10 11 6 7 5 7 11 9 9 10 11 9 6 9 8 7 4 4 6 8 10 8 10 11 11 9 8 nan
nan 9 15 8 5 11 12 8 8 13 10 9 9 8 10 9 10 10 10 10 10 8 7 8 8 7 7 7 9 7 8 6 6 4 3 5 5 8 9 9 10 11 9 nan
nan 11 9 7 13 12 8 15 13 8 9 7 5 12 9 12 8 8 10 8 8 6 7 10 8 8 8 7 6 9 9 7 6 7 5 5 2 5 6 8 9 10 11 nan
nan 12 7 7 13 11 3 16 16 5 9 9 4 12 10 12 10 11 13 9 8 7 9 9 9 7 6 9 8 9 8 6 8 8 5 5 6 5 8 9 10 8 7 nan
nan 7 10 11 10 7 11 9 7 9 5 7 12 6 9 12 7 8 13 13 10 8 7 10 9 9 9 9 9 9 10 7 8 8 9 7 6 4 4 7 7 7 9 nan
nan 11 11 10 7 11 10 5 8 6 12 9 10 8 8 7 14 15 9 10 13 10 9 11 10 9 10 9 8 8 8 8 8 7 9 9 7 8 6 6 6 8 7 nan
nan 9 14 10 10 9 8 8 9 11 6 9 10 7 11 12 14 15 15 17 15 13 10 9 10 9 8 8 9 9 8 9 8 8 8 9 8 8 13 12 9 7 8 nan
nan 8 11 8 10 10 8 9 8 7 9 12 5 6 9 11 10 10 13 20 18 14 13 10 12 14 11 10 10 10 11 14 14 12 10 11 15 10 4 15 12 8 7 nan
nan 12 8 10 13 10 12 8 7 10 14 6 9 11 5 -0 8 8 9 9 11 13 12 13 13 12 15 14 12 9 10 14 15 18 16 16 14 12 12 1 -2 12 10 nan
nan 8 7 9 9 7 7 9 12 14 9 11 8 8 12 12 12 6 6 9 10 11 11 10 10 11 10 9 11 12 13 14 16 16 16 12 3 2 7 8 11 4 6 nan
nan 5 11 9 7 12 11 9 10 9 7 9 10 5 9 15 17 9 7 8 9 9 9 9 11 11 12 13 12 14 14 12 14 11 12 11 4 3 7 8 14 12 12 nan
nan 5 7 10 12 13 13 10 11 9 12 10 8 9 4 8 13 10 10 7 11 9 8 9 10 10 11 12 12 11 9 10 11 9 8 4 7 11 12 13 15 16 12 nan
nan 11 13 8 5 5 4 10 11 8 10 13 7 12 4 9 9 6 6 10 10 8 9 10 11 12 10 10 9 9 9 10 10 9 8 4 6 9 10 9 12 16 14 nan
nan 7 11 9 9 10 9 11 12 12 12 14 15 8 9 10 5 7 9 10 11 9 8 9 9 12 11 9 9 10 9 8 9 8 7 10 15 12 6 10 14 6 2 nan
nan 14 9 5 12 11 5 10 13 12 11 12 15 8 12 11 11 8 11 10 7 9 9 10 9 9 9 9 8 9 9 10 9 9 10 11 9 10 11 14 13 9 8 nan
nan 11 9 8 10 9 2 11 14 12 13 15 10 9 8 6 9 12 11 10 9 9 8 7 8 8 6 8 8 9 12 9 8 9 9 9 9 10 11 12 9 10 15 nan
nan 7 11 12 9 12 9 7 10 7 5 9 13 15 12 9 6 9 11 8 7 8 7 5 6 7 8 7 7 8 9 9 9 9 10 10 9 9 10 10 9 12 12 nan
nan 10 11 11 9 8 13 14 5 5 5 8 8 8 8 8 7 7 12 11 9 7 8 8 6 5 6 9 8 8 7 9 10 10 9 8 8 9 8 8 11 10 9 nan
nan 11 12 9 12 10 7 7 11 9 12 14 7 9 8 7 8 10 10 10 9 8 7 10 8 7 8 10 12 8 9 11 10 11 11 10 10 10 8 10 10 12 11 nan
nan 13 11 11 8 7 15 11 11 7 13 14 11 11 11 12 10 11 10 8 8 8 10 10 10 9 9 11 13 10 11 10 11 12 12 11 10 11 11 10 9 9 10 nan
nan 9 6 8 8 10 11 19 15 9 14 11 11 10 11 11 12 13 9 7 7 9 12 13 14 12 11 12 11 10 10 9 11 12 10 11 10 9 11 10 9 11 10 nan
nan 13 12 10 4 8 12 14 13 13 10 10 12 11 9 7 8 12 12 11 10 13 14 12 9 9 10 11 9 10 9 9 11 11 12 11 11 10 11 10 11 12 12 nan
nan 14 12 9 11 13 12 10 11 12 12 12 10 8 9 13 9 9 11 10 10 9 10 10 7 9 10 10 11 10 9 11 12 11 12 13 12 11 13 13 12 10 9 nan
nan 10 9 4 12 11 9 12 10 11 10 10 12 12 10 9 13 11 8 8 9 9 9 9 9 10 10 11 11 11 10 10 11 13 13 13 12 12 13 13 11 11 10 nan
nan nan nan nan nan nan nan nan nan nan nan nan nan nan nan nan nan nan nan nan nan nan nan nan nan nan nan nan nan nan nan nan nan nan nan nan nan nan nan nan nan nan nan nan
CAPE
86 21 0 71 166 502 231 305 377 283 164 119 93 49 20 6 33 0 0 0 0 0 0 0 0 0 0 0 28 260 333 381 388 388 488 379 446 306 225 327 308 455 773 745
50 28 9 95 260 503 445 495 365 252 184 229 119 166 104 0 26 93 0 0 0 0 0 0 0 0 0 0 16 133 235 280 338 536 562 488 426 431 426 334 394 317 335 825
30 39 69 71 166 106 43 142 160 260 146 327 199 223 51 33 163 215 184 0 0 0 0 0 0 0 6 38 30 58 152 261 329 385 364 435 539 662 624 578 565 566 459 435
178 232 217 185 149 77 143 6 28 73 139 299 4 11 0 21 103 420 409 80 0 0 0 0 0 0 14 107 112 122 84 156 272 357 593 696 763 834 892 962 862 868 759 708
92 59 175 136 122 191 44 0 39 0 0 20 19 0 0 0 120 235 257 381 174 40 0 0 0 4 20 138 326 249 214 192 399 527 680 765 794 897 942 1097 1139 1044 1075 976
188 204 270 190 96 14 45 2 0 0 0 0 0 0 0 0 8 56 139 339 387 254 56 0 0 10 21 73 303 444 382 457 419 803 821 920 955 1030 1168 1238 1286 1387 1369 1375
24 27 63 179 60 2 0 0 0 17 10 2 0 0 0 0 0 10 44 31 299 358 340 50 0 0 1 35 158 411 454 470 602 678 1131 1187 1174 1159 1255 1431 1509 1704 1763 2330
77 90 36 1 41 16 0 0 0 2 0 0 0 0 0 0 0 0 0 0 0 306 352 246 120 0 0 60 177 255 409 598 595 625 1004 1277 1409 1421 1412 1498 1682 1763 1931 2284
0 2 1 20 4 0 0 0 0 0 0 0 0 0 0 0 0 0 0 0 0 0 50 363 350 218 152 225 321 423 653 702 788 968 1059 1271 1591 1433 1795 2101 2161 2316 2370 2517
16 51 0 0 0 0 0 0 0 0 0 0 0 0 0 0 0 0 0 0 0 0 0 4 9 47 100 318 497 447 132 120 625 1188 1342 1620 2008 365 160 0 0 0 331 2416
11 4 28 0 0 0 0 0 0 0 0 0 0 0 0 0 0 0 0 0 0 0 0 0 2 5 18 0 0 0 274 1850 2060 1623 1938 1816 51 2 0 0 24 2 0 1087
12 9 79 42 0 0 0 0 0 0 0 0 0 0 0 0 0 0 0 0 4 16 39 152 348 464 632 542 484 1019 2176 2477 2104 1888 1515 614 380 106 45 338 433 99 10 1843
30 26 30 0 0 0 0 0 0 0 0 0 0 0 0 0 0 0 0 0 0 0 45 93 217 420 1226 1552 858 938 1516 1401 314 298 485 316 163 71 41 298 532 1357 1905 2024
2 0 0 0 0 0 0 0 0 0 0 0 0 0 0 0 0 0 0 0 0 10 361 667 1021 1098 1084 693 469 412 492 176 19 0 0 0 1 81 77 654 1269 491 0 0
11 0 0 0 0 0 0 0 0 0 0 0 0 0 0 0 0 0 0 0 18 164 303 423 416 450 728 795 726 469 293 147 63 63 23 1 0 0 0 0 533 368 18 0
0 0 0 0 0 0 0 0 0 0 0 0 0 0 0 0 0 0 0 16 142 275 251 309 336 315 151 109 64 0 16 113 15 0 0 0 0 0 0 113 330 394 76 0
0 0 0 0 0 0 0 0 0 0 0 0 0 0 0 0 0 0 0 2 35 136 287 347 392 365 419 377 239 248 69 137 208 104 24 0 0 82 216 214 284 601 547 248
0 0 0 0 0 0 0 0 0 0 0 0 0 0 0 0 0 0 0 14 14 13 136 237 207 112 200 327 247 359 455 384 421 509 424 206 98 241 179 286 389 281 132 345
0 0 0 0 0 0 0 0 0 0 0 0 0 0 0 0 0 0 0 0 0 0 0 5 46 0 9 77 213 215 145 155 78 187 376 409 286 293 215 209 4 4 120 176
0 0 0 0 0 0 0 0 0 0 0 0 0 0 0 0 0 0 0 2 14 0 0 0 0 7 0 0 0 28 3 0 14 0 41 234 157 163 275 134 19 23 129 169
0 0 0 0 0 0 0 1 0 0 0 0 0 0 0 0 0 0 1 6 0 0 0 0 0 0 0 0 1 0 0 7 19 20 131 227 294 306 233 186 160 174 227 212
0 0 0 0 0 0 0 0 1 0 0 0 0 0 0 0 0 1 14 0 0 0 0 0 0 0 0 0 0 0 0 0 7 15 72 166 152 188 257 130 149 186 175 161
0 0 0 0 0 0 0 0 0 0 0 0 0 0 0 0 0 0 0 0 0 0 0 0 0 0 0 0 0 0 0 0 0 6 49 75 95 157 138 84 117 129 107 131
0 0 0 0 0 0 0 0 0 0 0 0 0 0 0 0 0 0 0 0 0 0 0 0 0 0 0 0 0 0 0 0 0 0 31 57 39 61 38 38 68 59 66 41
0 0 0 0 0 0 0 0 0 0 0 0 0 0 0 0 0 0 0 0 0 0 0 0 0 0 0 0 0 0 0 0 1 3 0 15 38 52 45 55 74 105 85 32
0 0 0 0 0 0 0 0 0 0 0 0 0 0 0 0 0 0 0 0 0 0 0 0 0 0 0 0 0 0 0 4 5 6 3 2 1 2 2 2 35 37 31 10